SCP
0 -0 -0 -0 0 0 -0 -0 -0 0 0 0 -0 -0 -0 -0 0 0 0 -0 -0 -0 -0 -0 0 -0 -0 0 0 0 0 0 0 0 0 0 0 0 0 -0 -0 0 -0 -0 -0 -0 -0 -0 -0
0 -0 0 0 -0 0 -0 -0 -0 0 -0 -0 -0 -0 -0 -0 -0 -0 0 -0 -0 -0 0 0 0 0 0 0 0 0 0 0 0 0 0 0 0 0 -0 -0 -0 -0 -0 -0 -0 -0 -0 -0 -0
0 -0 -0 0 -0 -0 -0 -0 0 0 0 0 -0 -0 0 -0 0 -0 0 -0 0 0 0 0 0 0 0 0 0 0 0 0 0 0 0 0 0 -0 -0 -0 -0 -0 -0 -0 -0 -0 -0 -0 -0
0 -0 0 0 -0 -0 0 0 0 0 0 0 0 0 -0 0 -0 -0 0 -1 0 0 0 -0 -0 0 0 0 0 0 0 0 0 0 0 0 0 0 -0 -0 -0 -0 -0 -0 -0 -0 -0 -0 -0
0 0 0 0 -0 0 0 0 0 -0 -0 0 0 0 0 0 0 -0 0 -0 0 0 0 0 -0 0 0 0 0 0 0 0 0 0 0 0 0 0 0 0 -0 0 -0 0 0 0 -0 -0 -0
0 -0 0 0 0 0 -0 -0 -0 -0 0 0 -0 -0 -0 0 0 -0 0 -0 0 0 0 0 0 0 0 0 0 0 0 0 0 0 0 0 0 0 0 0 0 0 -0 0 0 0 -0 -0 -0
0 0 0 0 0 0 0 0 -0 -0 0 -0 0 -0 -0 0 0 -0 -0 0 -0 0 0 0 0 0 0 0 0 0 0 0 0 0 -0 -0 -0 -0 -0 -0 -0 -0 0 0 0 0 0 -0 -0
-0 0 0 0 0 0 -0 0 -0 -0 -0 0 0 -0 -0 -0 0 -0 -0 -0 0 0 0 0 0 -0 0 0 0 0 0 0 -0 -0 -0 -0 -0 -0 -0 -0 -0 -0 0 0 0 0 0 0 0
0 0 0 -0 -0 -0 0 0 0 -0 0 -0 -0 -0 -0 -0 -0 -0 -0 -0 -0 0 0 0 0 0 0 0 0 0 0 0 0 0 -0 -0 -0 -0 -0 0 0 0 0 0 0 0 1 1 0
0 0 0 0 -0 -0 -0 0 0 0 0 -0 -0 -0 -0 -0 -0 -0 0 0 -0 0 0 0 0 -0 0 0 0 0 0 0 0 0 0 0 0 0 0 0 1 0 0 1 1 1 0 0 0
-0 0 0 0 0 0 0 0 0 0 0 0 -0 -0 0 -0 -0 0 0 0 0 0 -0 0 0 0 0 0 -0 0 0 -0 0 0 0 0 0 0 0 0 1 1 0 1 1 0 0 0 0
0 0 0 0 0 0 0 0 0 0 0 0 0 -0 -0 -0 0 0 0 0 0 0 0 0 -0 0 0 0 -0 0 0 0 0 0 0 0 1 0 0 0 0 0 0 1 0 0 0 0 0
0 0 0 0 0 0 0 0 0 0 0 0 0 -0 -0 -0 0 -0 -0 0 0 0 0 0 0 0 0 0 0 0 1 0 1 1 0 0 0 0 0 0 0 0 0 0 0 0 0 0 0
0 0 0 0 0 0 0 0 0 0 0 0 0 -0 -0 -0 0 0 -0 0 0 0 -0 0 -0 0 1 1 1 1 0 0 0 0 0 0 0 0 0 0 0 0 0 0 0 0 0 0 0
0 0 0 0 0 0 0 0 0 0 0 0 -0 -0 -0 -0 -0 0 0 1 1 1 0 0 0 0 0 0 1 1 0 0 0 0 0 0 0 0 0 0 0 0 0 0 0 0 0 0 0
-0 -0 0 0 0 0 0 0 0 0 0 0 0 0 -0 0 0 0 0 0 0 0 0 0 0 0 0 0 0 0 0 0 0 0 0 0 0 0 0 0 0 0 0 0 0 0 0 0 0
-0 0 0 0 0 0 0 0 0 0 0 0 0 0 0 0 0 0 0 0 0 0 0 0 0 0 0 0 0 0 0 0 0 0 0 0 0 0 0 0 0 0 0 0 0 0 0 0 0
0 0 0 0 0 0 0 0 0 0 0 0 0 0 0 0 0 0 0 0 0 0 0 0 0 0 0 0 0 0 0 0 0 0 0 0 0 0 0 0 0 0 0 0 0 0 0 0 0
0 0 0 0 0 0 0 0 0 0 0 0 0 0 0 0 0 0 0 0 0 0 0 0 0 0 0 0 0 0 0 0 0 0 0 0 0 0 0 0 0 0 0 0 0 0 0 0 0
0 0 0 0 0 0 0 0 0 0 0 0 0 0 0 0 0 0 0 0 0 0 0 0 0 0 0 0 0 0 0 0 0 0 0 0 0 0 0 0 0 0 0 0 0 0 0 0 0
0 0 0 0 0 0 0 0 0 0 0 0 0 0 0 0 0 0 0 0 0 0 0 0 0 0 0 0 0 0 0 -0 -0 0 0 0 0 0 0 0 0 0 0 1 0 0 0 0 0
0 0 0 0 0 0 0 0 0 0 0 0 0 0 0 0 0 0 0 0 0 0 0 0 0 0 0 0 0 0 0 0 0 -0 0 0 0 0 0 0 0 -0 0 -0 0 0 0 0 0
0 0 0 0 0 0 0 0 0 0 0 0 0 0 0 0 0 0 0 0 0 0 0 0 0 0 0 0 0 0 0 0 0 0 0 0 0 0 0 0 0 0 0 1 1 1 1 0 0
0 0 0 0 0 0 -0 0 0 0 0 0 0 0 0 0 0 0 0 0 0 0 0 0 0 0 0 0 0 0 0 0 0 0 0 0 0 0 0 0 0 0 0 0 0 0 0 0 0
0 0 0 0 0 0 -0 0 0 0 0 0 0 0 0 0 0 0 0 0 0 0 0 0 0 0 0 0 0 0 0 0 0 0 0 0 0 0 0 0 0 0 0 0 0 0 0 0 0
0 0 0 0 0 0 0 0 0 0 0 0 0 0 0 0 0 0 0 0 0 0 0 0 0 0 0 0 0 0 0 0 0 0 0 0 0 0 0 0 0 0 0 0 0 0 0 0 0
0 0 0 0 0 0 0 0 0 0 0 0 0 0 0 0 0 0 0 0 0 0 0 0 0 0 0 0 0 0 0 0 0 0 0 0 0 0 0 0 0 0 0 0 0 0 0 0 0
0 0 0 0 0 0 0 0 0 0 0 0 0 0 0 0 0 0 0 0 0 0 0 0 0 0 0 0 0 0 0 0 0 0 0 0 0 0 0 0 0 0 0 0 0 0 0 -0 0
0 0 0 0 0 0 0 0 -0 -0 -0 0 0 0 0 0 0 0 0 0 0 0 0 0 0 0 0 0 0 0 0 0 0 0 0 0 0 0 0 0 0 0 0 0 0 0 0 0 0
0 0 0 0 0 0 0 0 0 0 0 0 0 0 0 0 0 0 0 0 0 0 0 0 0 0 0 -0 0 0 0 0 0 0 0 0 0 0 0 0 0 0 0 0 0 0 0 0 0
Wind_Speed_500mb
32 22 18 15 9 15 10 7 15 12 7 46 53 42 36 42 14 9 22 21 16 15 18 14 16 22 26 34 32 29 26 25 24 26 25 22 20 19 20 18 17 17 17 17 19 20 21 22 25
31 21 16 8 8 9 6 11 20 9 18 22 22 58 49 32 37 21 21 23 6 9 17 15 16 19 26 31 30 30 25 23 21 19 20 19 15 15 15 14 13 12 13 13 13 15 16 17 19
22 21 7 7 5 10 10 16 16 21 53 37 50 63 25 14 14 29 28 19 9 12 15 15 17 21 25 28 28 28 24 21 18 17 15 15 12 10 9 9 8 7 7 8 9 11 13 13 14
27 9 9 6 1 9 14 30 27 8 21 22 22 18 13 20 11 17 28 29 15 8 8 6 10 17 25 28 26 24 24 19 16 13 13 13 11 9 6 3 2 2 4 6 9 10 12 14 14
22 9 5 7 11 7 33 42 37 11 19 58 62 19 12 16 27 26 19 16 5 11 7 6 7 11 17 24 28 28 26 22 17 13 12 12 11 9 6 4 5 6 8 9 11 13 15 16 18
16 8 8 11 14 5 16 50 44 25 47 58 26 24 15 17 24 23 17 14 7 12 12 9 9 10 13 18 24 26 25 23 19 16 15 14 12 11 9 9 9 11 12 12 14 16 18 21 22
24 2 16 21 29 16 14 49 23 21 41 27 39 15 8 15 27 28 22 11 8 11 15 6 2 9 15 16 16 20 21 21 19 19 18 17 17 16 14 13 13 13 15 15 16 18 20 22 26
40 1 17 15 17 6 27 27 47 30 16 60 19 10 5 22 26 34 26 36 28 15 15 23 7 6 9 10 13 16 18 21 23 23 21 20 19 17 17 17 17 16 18 20 22 22 24 26 27
46 6 11 13 21 11 43 20 49 34 44 29 37 43 32 25 25 19 21 42 35 16 11 17 23 7 11 7 7 8 11 14 15 17 18 17 14 13 10 8 12 17 17 19 21 21 18 17 23
17 5 17 3 21 15 43 57 53 48 49 44 42 34 30 20 28 26 31 21 20 12 2 13 32 6 9 4 9 7 8 9 10 10 11 9 6 3 7 8 16 26 24 20 22 23 25 20 22
43 10 10 35 40 38 46 55 56 45 17 41 41 21 20 7 22 35 28 18 9 20 9 3 20 10 5 14 15 3 5 6 5 8 10 8 8 9 13 20 23 19 20 22 23 27 29 30 41
7 8 31 30 24 33 22 48 42 49 34 32 21 45 85 69 54 39 26 9 15 8 17 4 13 15 14 15 11 15 13 11 14 16 14 17 16 17 20 20 17 10 13 16 13 16 20 24 24
8 2 15 24 20 24 49 40 30 32 19 25 29 40 62 70 66 64 42 29 23 24 12 4 25 13 3 10 19 30 17 18 20 24 30 30 30 29 21 25 20 20 13 12 11 15 20 24 23
16 20 9 17 21 8 10 28 36 18 17 26 35 47 43 51 66 60 56 44 34 26 22 15 7 10 10 19 23 17 22 19 30 39 40 34 37 35 32 33 30 22 20 12 12 10 5 13 14
16 8 13 9 27 10 5 7 14 24 17 30 52 52 51 47 47 55 45 43 28 23 20 29 18 10 18 7 11 6 12 25 32 35 39 35 34 32 27 30 27 25 22 23 21 15 10 14 19
8 8 9 16 19 13 17 5 18 21 23 33 50 52 54 49 41 42 34 29 32 25 16 7 10 20 14 6 5 7 10 8 19 30 30 24 23 22 22 25 24 20 18 18 16 12 11 9 15
10 13 4 9 26 14 10 14 18 27 29 36 45 45 47 43 39 34 36 33 31 26 28 24 14 13 17 13 7 10 11 13 10 19 21 21 22 21 18 20 11 11 10 11 7 7 14 16 17
11 5 12 15 12 16 14 12 15 37 31 42 43 40 39 35 29 23 24 29 31 30 23 21 25 24 10 9 10 3 7 16 16 21 26 27 22 15 11 8 5 7 6 12 13 18 20 23 24
17 15 18 5 16 11 6 19 18 29 34 43 48 39 34 29 20 15 15 21 25 28 30 31 35 34 13 15 19 13 15 15 8 17 13 16 20 12 21 21 17 10 9 18 33 40 42 40 34
14 14 17 18 15 10 6 2 16 32 21 46 53 50 45 33 20 15 13 15 21 29 31 27 26 32 36 29 27 33 29 31 28 24 18 25 27 29 23 13 14 19 44 54 53 42 35 36 36
14 19 19 17 18 14 13 8 11 9 44 51 43 34 24 17 8 4 4 10 16 25 30 30 31 18 21 29 41 39 41 46 47 39 38 40 41 40 40 41 27 53 65 54 59 37 31 37 40
11 17 17 20 17 8 10 10 16 21 15 26 34 28 32 23 18 11 12 16 14 21 32 26 7 11 17 33 46 50 47 53 66 65 60 56 51 40 35 40 45 43 49 44 52 57 43 39 48
6 12 13 18 13 9 18 3 14 18 15 17 35 39 28 22 8 9 23 22 17 18 14 11 26 35 37 45 45 47 43 47 48 56 61 67 66 61 54 51 47 42 40 36 38 47 44 40 43
4 10 16 11 4 4 23 14 5 6 5 9 22 23 25 12 5 11 15 20 27 31 41 41 44 39 47 52 46 44 44 38 45 54 61 67 66 55 43 50 52 50 39 34 41 48 49 48 46
20 14 9 11 6 10 24 13 5 12 21 28 24 19 10 11 16 22 25 30 40 44 29 41 48 38 39 41 38 42 48 49 52 64 57 52 50 55 51 42 46 52 52 50 46 38 39 50 52
12 4 9 4 5 11 15 7 3 12 22 17 9 10 10 16 24 32 41 48 49 57 38 42 61 68 55 37 32 40 45 55 61 58 52 48 48 56 57 61 75 67 64 68 65 60 61 60 54
12 9 6 3 7 4 3 8 3 12 9 18 22 19 24 30 32 40 43 38 35 38 35 39 31 26 27 35 40 40 37 40 43 47 53 58 57 56 56 63 67 72 76 79 76 76 75 65 69
3 2 10 6 1 5 13 8 5 9 11 11 14 25 30 36 43 46 46 35 30 25 20 19 34 46 53 60 65 67 70 71 72 77 68 62 61 63 65 70 76 84 88 92 96 97 93 99 99
2 4 2 6 8 7 3 11 7 4 5 9 25 33 36 40 45 39 37 41 34 30 37 39 48 58 72 83 75 73 75 77 60 44 53 61 62 57 60 59 54 53 59 55 55 50 51 59 66
5 3 7 9 10 2 8 11 5 1 27 30 26 30 37 44 37 41 41 48 38 42 50 59 70 81 85 76 73 66 66 69 67 68 70 68 67 68 63 58 55 58 62 52 51 52 53 50 51
Wind_Direction_500mb
328 334 353 0 40 81 66 4 295 267 274 334 73 75 71 51 55 128 122 182 143 152 151 144 143 153 159 162 156 149 144 142 143 136 127 121 116 112 105 96 89 84 75 67 61 58 56 57 62
343 15 336 286 99 61 270 232 229 229 11 310 317 84 67 69 91 102 135 167 137 137 148 141 140 151 158 166 163 158 152 149 149 145 139 134 130 120 112 103 91 78 67 55 48 45 44 41 47
346 342 308 126 206 153 189 229 252 57 52 23 46 53 39 6 90 128 101 127 76 77 146 150 151 155 162 171 171 168 163 155 156 155 158 146 143 141 129 111 94 73 53 39 26 21 19 21 23
352 328 264 94 181 205 189 164 152 150 71 62 64 19 29 72 96 149 138 136 131 136 147 144 170 164 165 171 174 175 177 172 166 166 174 171 167 168 163 150 102 18 360 354 349 346 348 351 354
326 264 320 336 279 184 93 130 139 127 105 117 101 185 203 120 121 140 145 176 342 141 202 210 192 187 179 178 179 181 185 187 187 186 193 195 191 196 215 234 280 305 312 319 324 325 324 326 331
291 289 326 286 259 254 144 134 128 150 133 128 122 167 217 130 144 146 136 119 110 116 112 157 174 183 187 195 190 192 194 195 199 203 207 207 209 219 234 258 277 289 296 306 312 316 318 319 324
254 6 271 291 282 117 123 158 158 153 130 152 137 129 249 118 144 143 150 160 90 53 33 20 108 180 191 203 205 203 197 200 202 208 207 210 217 227 241 257 274 289 294 304 309 316 316 321 322
285 161 304 304 61 97 137 119 119 115 109 130 91 157 200 142 150 149 162 127 129 132 91 86 52 253 213 211 204 209 208 207 204 205 207 215 222 241 262 276 279 287 306 321 319 325 337 331 321
273 334 289 297 9 151 67 91 56 75 99 113 118 107 114 139 172 206 93 78 72 114 112 73 23 11 298 247 219 215 219 214 214 221 220 228 243 260 265 305 323 330 331 331 330 319 303 298 304
259 110 271 118 47 24 64 72 68 60 68 108 116 115 123 131 193 176 154 113 42 359 36 209 288 244 208 228 237 215 220 241 246 237 235 232 207 222 291 331 345 323 321 327 319 307 308 291 314
255 187 36 37 29 28 86 72 68 69 40 62 146 155 138 57 106 50 41 135 347 203 258 36 142 216 91 155 249 262 181 235 235 211 214 207 246 275 304 304 302 317 336 326 309 311 323 302 314
15 32 77 69 31 24 83 88 68 67 57 74 76 55 74 80 59 47 57 49 87 129 122 87 158 236 142 190 192 262 239 231 240 245 230 235 236 242 242 250 263 290 339 345 358 356 4 360 343
348 105 59 87 75 56 99 104 103 77 63 57 64 54 60 65 62 56 66 71 93 125 120 353 193 178 261 262 234 231 195 236 248 237 244 245 232 228 240 241 243 259 281 312 349 354 350 333 330
3 3 118 118 118 116 106 114 105 98 107 98 73 70 54 46 56 62 59 54 51 68 65 51 62 331 249 232 250 238 232 198 216 225 239 240 245 244 243 250 244 234 245 254 272 275 341 338 350
352 338 302 177 156 149 147 68 110 122 91 93 83 76 61 48 36 52 54 62 70 57 71 78 36 315 285 264 145 142 216 224 228 235 246 254 247 246 238 240 241 244 254 264 238 220 248 272 297
262 304 255 242 141 128 121 92 114 117 118 97 89 79 71 60 49 44 50 53 58 62 34 61 281 287 307 297 187 206 218 226 263 262 265 263 250 247 236 241 253 266 263 251 255 267 273 286 276
301 250 250 106 171 146 126 157 142 126 98 96 93 87 81 73 61 53 47 43 42 40 41 35 29 344 334 359 293 281 269 253 270 276 288 282 277 285 259 240 251 260 270 259 277 295 332 336 329
327 319 350 124 244 150 195 135 151 139 145 123 113 103 94 85 76 54 36 22 32 42 49 25 18 28 55 36 6 269 285 280 273 284 270 274 274 281 248 266 268 267 256 290 312 323 326 335 336
346 348 340 318 210 146 171 159 171 148 151 136 120 116 110 102 98 65 36 20 12 8 1 358 360 7 348 3 355 336 354 332 283 271 253 242 228 246 269 265 244 254 294 324 331 325 324 321 322
19 19 359 334 28 36 75 315 142 165 164 139 126 122 121 121 105 77 49 32 8 353 346 345 349 344 340 344 338 331 321 320 310 278 240 236 223 235 226 254 279 291 314 311 315 310 305 306 318
32 32 2 340 333 357 2 315 259 147 118 107 117 123 129 131 132 130 334 323 336 338 326 321 323 332 337 333 325 319 309 298 304 320 316 312 297 301 276 259 241 305 303 309 305 300 285 293 296
5 15 358 332 356 308 46 286 311 146 116 120 132 151 148 142 137 91 7 309 330 336 318 310 335 348 341 340 330 321 319 312 307 296 299 301 308 321 314 311 310 298 288 284 278 292 293 281 283
250 343 288 280 283 329 292 3 287 116 141 168 166 152 152 145 145 318 316 291 326 357 9 61 335 337 328 324 315 310 308 305 309 304 304 306 300 298 295 295 294 290 274 273 271 276 275 280 277
294 310 322 282 171 332 266 199 333 24 167 102 63 122 112 100 34 323 20 4 355 339 331 323 335 331 328 325 317 311 305 289 298 299 301 303 305 302 305 299 292 290 280 281 270 265 269 273 279
21 44 347 351 21 208 341 35 28 65 58 75 70 66 16 342 3 24 8 342 331 334 329 320 318 320 320 316 318 313 307 293 294 293 289 288 286 282 280 282 282 282 281 283 286 277 272 269 272
288 129 140 276 355 285 320 52 197 106 97 96 70 88 60 48 18 5 350 333 319 309 308 321 317 306 315 329 323 310 302 299 301 289 281 266 267 274 279 278 281 279 279 287 285 286 279 274 271
309 50 189 71 293 4 196 90 63 158 118 52 34 22 56 20 5 348 348 347 337 336 348 343 331 324 321 315 307 304 304 304 302 292 284 277 272 269 270 281 281 279 278 276 274 278 281 273 275
206 273 33 353 274 298 325 3 155 43 9 8 10 62 35 17 3 354 345 348 9 3 349 348 325 322 323 320 313 307 302 299 300 297 290 289 286 284 286 285 281 277 276 275 275 274 269 270 271
165 289 219 143 140 166 258 281 172 132 256 62 50 33 21 9 357 7 12 3 355 351 350 339 331 328 325 320 312 304 302 300 292 285 295 297 291 282 286 286 283 288 290 287 279 279 279 272 266
87 315 116 116 291 3 150 262 10 302 57 59 40 30 11 2 1 5 5 354 343 342 334 330 328 326 326 322 316 315 305 305 300 294 289 288 285 290 291 289 288 288 285 283 285 280 279 278 275
Wind_Speed_850mb
32 22 18 15 9 15 10 7 15 12 7 46 53 42 36 42 14 9 22 21 16 15 18 14 16 22 26 34 32 29 26 25 24 26 25 22 20 19 20 18 17 17 17 17 19 20 21 22 25
31 21 16 8 8 9 6 11 20 9 18 22 22 58 49 32 37 21 21 23 6 9 17 15 16 19 26 31 30 30 25 23 21 19 20 19 15 15 15 14 13 12 13 13 13 15 16 17 19
22 21 7 7 5 10 10 16 16 21 53 37 50 63 25 14 14 29 28 19 9 12 15 15 17 21 25 28 28 28 24 21 18 17 15 15 12 10 9 9 8 7 7 8 9 11 13 13 14
27 9 9 6 1 9 14 30 27 8 21 22 22 18 13 20 11 17 28 29 15 8 8 6 10 17 25 28 26 24 24 19 16 13 13 13 11 9 6 3 2 2 4 6 9 10 12 14 14
22 9 5 7 11 7 33 42 37 11 19 58 62 19 12 16 27 26 19 16 5 11 7 6 7 11 17 24 28 28 26 22 17 13 12 12 11 9 6 4 5 6 8 9 11 13 15 16 18
16 8 8 11 14 5 16 50 44 25 47 58 26 24 15 17 24 23 17 14 7 12 12 9 9 10 13 18 24 26 25 23 19 16 15 14 12 11 9 9 9 11 12 12 14 16 18 21 22
24 2 16 21 29 16 14 49 23 21 41 27 39 15 8 15 27 28 22 11 8 11 15 6 2 9 15 16 16 20 21 21 19 19 18 17 17 16 14 13 13 13 15 15 16 18 20 22 26
40 1 17 15 17 6 27 27 47 30 16 60 19 10 5 22 26 34 26 36 28 15 15 23 7 6 9 10 13 16 18 21 23 23 21 20 19 17 17 17 17 16 18 20 22 22 24 26 27
46 6 11 13 21 11 43 20 49 34 44 29 37 43 32 25 25 19 21 42 35 16 11 17 23 7 11 7 7 8 11 14 15 17 18 17 14 13 10 8 12 17 17 19 21 21 18 17 23
17 5 17 3 21 15 43 57 53 48 49 44 42 34 30 20 28 26 31 21 20 12 2 13 32 6 9 4 9 7 8 9 10 10 11 9 6 3 7 8 16 26 24 20 22 23 25 20 22
43 10 10 35 40 38 46 55 56 45 17 41 41 21 20 7 22 35 28 18 9 20 9 3 20 10 5 14 15 3 5 6 5 8 10 8 8 9 13 20 23 19 20 22 23 27 29 30 41
7 8 31 30 24 33 22 48 42 49 34 32 21 45 85 69 54 39 26 9 15 8 17 4 13 15 14 15 11 15 13 11 14 16 14 17 16 17 20 20 17 10 13 16 13 16 20 24 24
8 2 15 24 20 24 49 40 30 32 19 25 29 40 62 70 66 64 42 29 23 24 12 4 25 13 3 10 19 30 17 18 20 24 30 30 30 29 21 25 20 20 13 12 11 15 20 24 23
16 20 9 17 21 8 10 28 36 18 17 26 35 47 43 51 66 60 56 44 34 26 22 15 7 10 10 19 23 17 22 19 30 39 40 34 37 35 32 33 30 22 20 12 12 10 5 13 14
16 8 13 9 27 10 5 7 14 24 17 30 52 52 51 47 47 55 45 43 28 23 20 29 18 10 18 7 11 6 12 25 32 35 39 35 34 32 27 30 27 25 22 23 21 15 10 14 19
8 8 9 16 19 13 17 5 18 21 23 33 50 52 54 49 41 42 34 29 32 25 16 7 10 20 14 6 5 7 10 8 19 30 30 24 23 22 22 25 24 20 18 18 16 12 11 9 15
10 13 4 9 26 14 10 14 18 27 29 36 45 45 47 43 39 34 36 33 31 26 28 24 14 13 17 13 7 10 11 13 10 19 21 21 22 21 18 20 11 11 10 11 7 7 14 16 17
11 5 12 15 12 16 14 12 15 37 31 42 43 40 39 35 29 23 24 29 31 30 23 21 25 24 10 9 10 3 7 16 16 21 26 27 22 15 11 8 5 7 6 12 13 18 20 23 24
17 15 18 5 16 11 6 19 18 29 34 43 48 39 34 29 20 15 15 21 25 28 30 31 35 34 13 15 19 13 15 15 8 17 13 16 20 12 21 21 17 10 9 18 33 40 42 40 34
14 14 17 18 15 10 6 2 16 32 21 46 53 50 45 33 20 15 13 15 21 29 31 27 26 32 36 29 27 33 29 31 28 24 18 25 27 29 23 13 14 19 44 54 53 42 35 36 36
14 19 19 17 18 14 13 8 11 9 44 51 43 34 24 17 8 4 4 10 16 25 30 30 31 18 21 29 41 39 41 46 47 39 38 40 41 40 40 41 27 53 65 54 59 37 31 37 40
11 17 17 20 17 8 10 10 16 21 15 26 34 28 32 23 18 11 12 16 14 21 32 26 7 11 17 33 46 50 47 53 66 65 60 56 51 40 35 40 45 43 49 44 52 57 43 39 48
6 12 13 18 13 9 18 3 14 18 15 17 35 39 28 22 8 9 23 22 17 18 14 11 26 35 37 45 45 47 43 47 48 56 61 67 66 61 54 51 47 42 40 36 38 47 44 40 43
4 10 16 11 4 4 23 14 5 6 5 9 22 23 25 12 5 11 15 20 27 31 41 41 44 39 47 52 46 44 44 38 45 54 61 67 66 55 43 50 52 50 39 34 41 48 49 48 46
20 14 9 11 6 10 24 13 5 12 21 28 24 19 10 11 16 22 25 30 40 44 29 41 48 38 39 41 38 42 48 49 52 64 57 52 50 55 51 42 46 52 52 50 46 38 39 50 52
12 4 9 4 5 11 15 7 3 12 22 17 9 10 10 16 24 32 41 48 49 57 38 42 61 68 55 37 32 40 45 55 61 58 52 48 48 56 57 61 75 67 64 68 65 60 61 60 54
12 9 6 3 7 4 3 8 3 12 9 18 22 19 24 30 32 40 43 38 35 38 35 39 31 26 27 35 40 40 37 40 43 47 53 58 57 56 56 63 67 72 76 79 76 76 75 65 69
3 2 10 6 1 5 13 8 5 9 11 11 14 25 30 36 43 46 46 35 30 25 20 19 34 46 53 60 65 67 70 71 72 77 68 62 61 63 65 70 76 84 88 92 96 97 93 99 99
2 4 2 6 8 7 3 11 7 4 5 9 25 33 36 40 45 39 37 41 34 30 37 39 48 58 72 83 75 73 75 77 60 44 53 61 62 57 60 59 54 53 59 55 55 50 51 59 66
5 3 7 9 10 2 8 11 5 1 27 30 26 30 37 44 37 41 41 48 38 42 50 59 70 81 85 76 73 66 66 69 67 68 70 68 67 68 63 58 55 58 62 52 51 52 53 50 51
Wind_Direction_850mb
328 334 353 0 40 81 66 4 295 267 274 334 73 75 71 51 55 128 122 182 143 152 151 144 143 153 159 162 156 149 144 142 143 136 127 121 116 112 105 96 89 84 75 67 61 58 56 57 62
343 15 336 286 99 61 270 232 229 229 11 310 317 84 67 69 91 102 135 167 137 137 148 141 140 151 158 166 163 158 152 149 149 145 139 134 130 120 112 103 91 78 67 55 48 45 44 41 47
346 342 308 126 206 153 189 229 252 57 52 23 46 53 39 6 90 128 101 127 76 77 146 150 151 155 162 171 171 168 163 155 156 155 158 146 143 141 129 111 94 73 53 39 26 21 19 21 23
352 328 264 94 181 205 189 164 152 150 71 62 64 19 29 72 96 149 138 136 131 136 147 144 170 164 165 171 174 175 177 172 166 166 174 171 167 168 163 150 102 18 360 354 349 346 348 351 354
326 264 320 336 279 184 93 130 139 127 105 117 101 185 203 120 121 140 145 176 342 141 202 210 192 187 179 178 179 181 185 187 187 186 193 195 191 196 215 234 280 305 312 319 324 325 324 326 331
291 289 326 286 259 254 144 134 128 150 133 128 122 167 217 130 144 146 136 119 110 116 112 157 174 183 187 195 190 192 194 195 199 203 207 207 209 219 234 258 277 289 296 306 312 316 318 319 324
254 6 271 291 282 117 123 158 158 153 130 152 137 129 249 118 144 143 150 160 90 53 33 20 108 180 191 203 205 203 197 200 202 208 207 210 217 227 241 257 274 289 294 304 309 316 316 321 322
285 161 304 304 61 97 137 119 119 115 109 130 91 157 200 142 150 149 162 127 129 132 91 86 52 253 213 211 204 209 208 207 204 205 207 215 222 241 262 276 279 287 306 321 319 325 337 331 321
273 334 289 297 9 151 67 91 56 75 99 113 118 107 114 139 172 206 93 78 72 114 112 73 23 11 298 247 219 215 219 214 214 221 220 228 243 260 265 305 323 330 331 331 330 319 303 298 304
259 110 271 118 47 24 64 72 68 60 68 108 116 115 123 131 193 176 154 113 42 359 36 209 288 244 208 228 237 215 220 241 246 237 235 232 207 222 291 331 345 323 321 327 319 307 308 291 314
255 187 36 37 29 28 86 72 68 69 40 62 146 155 138 57 106 50 41 135 347 203 258 36 142 216 91 155 249 262 181 235 235 211 214 207 246 275 304 304 302 317 336 326 309 311 323 302 314
15 32 77 69 31 24 83 88 68 67 57 74 76 55 74 80 59 47 57 49 87 129 122 87 158 236 142 190 192 262 239 231 240 245 230 235 236 242 242 250 263 290 339 345 358 356 4 360 343
348 105 59 87 75 56 99 104 103 77 63 57 64 54 60 65 62 56 66 71 93 125 120 353 193 178 261 262 234 231 195 236 248 237 244 245 232 228 240 241 243 259 281 312 349 354 350 333 330
3 3 118 118 118 116 106 114 105 98 107 98 73 70 54 46 56 62 59 54 51 68 65 51 62 331 249 232 250 238 232 198 216 225 239 240 245 244 243 250 244 234 245 254 272 275 341 338 350
352 338 302 177 156 149 147 68 110 122 91 93 83 76 61 48 36 52 54 62 70 57 71 78 36 315 285 264 145 142 216 224 228 235 246 254 247 246 238 240 241 244 254 264 238 220 248 272 297
262 304 255 242 141 128 121 92 114 117 118 97 89 79 71 60 49 44 50 53 58 62 34 61 281 287 307 297 187 206 218 226 263 262 265 263 250 247 236 241 253 266 263 251 255 267 273 286 276
301 250 250 106 171 146 126 157 142 126 98 96 93 87 81 73 61 53 47 43 42 40 41 35 29 344 334 359 293 281 269 253 270 276 288 282 277 285 259 240 251 260 270 259 277 295 332 336 329
327 319 350 124 244 150 195 135 151 139 145 123 113 103 94 85 76 54 36 22 32 42 49 25 18 28 55 36 6 269 285 280 273 284 270 274 274 281 248 266 268 267 256 290 312 323 326 335 336
346 348 340 318 210 146 171 159 171 148 151 136 120 116 110 102 98 65 36 20 12 8 1 358 360 7 348 3 355 336 354 332 283 271 253 242 228 246 269 265 244 254 294 324 331 325 324 321 322
19 19 359 334 28 36 75 315 142 165 164 139 126 122 121 121 105 77 49 32 8 353 346 345 349 344 340 344 338 331 321 320 310 278 240 236 223 235 226 254 279 291 314 311 315 310 305 306 318
32 32 2 340 333 357 2 315 259 147 118 107 117 123 129 131 132 130 334 323 336 338 326 321 323 332 337 333 325 319 309 298 304 320 316 312 297 301 276 259 241 305 303 309 305 300 285 293 296
5 15 358 332 356 308 46 286 311 146 116 120 132 151 148 142 137 91 7 309 330 336 318 310 335 348 341 340 330 321 319 312 307 296 299 301 308 321 314 311 310 298 288 284 278 292 293 281 283
250 343 288 280 283 329 292 3 287 116 141 168 166 152 152 145 145 318 316 291 326 357 9 61 335 337 328 324 315 310 308 305 309 304 304 306 300 298 295 295 294 290 274 273 271 276 275 280 277
294 310 322 282 171 332 266 199 333 24 167 102 63 122 112 100 34 323 20 4 355 339 331 323 335 331 328 325 317 311 305 289 298 299 301 303 305 302 305 299 292 290 280 281 270 265 269 273 279
21 44 347 351 21 208 341 35 28 65 58 75 70 66 16 342 3 24 8 342 331 334 329 320 318 320 320 316 318 313 307 293 294 293 289 288 286 282 280 282 282 282 281 283 286 277 272 269 272
288 129 140 276 355 285 320 52 197 106 97 96 70 88 60 48 18 5 350 333 319 309 308 321 317 306 315 329 323 310 302 299 301 289 281 266 267 274 279 278 281 279 279 287 285 286 279 274 271
309 50 189 71 293 4 196 90 63 158 118 52 34 22 56 20 5 348 348 347 337 336 348 343 331 324 321 315 307 304 304 304 302 292 284 277 272 269 270 281 281 279 278 276 274 278 281 273 275
206 273 33 353 274 298 325 3 155 43 9 8 10 62 35 17 3 354 345 348 9 3 349 348 325 322 323 320 313 307 302 299 300 297 290 289 286 284 286 285 281 277 276 275 275 274 269 270 271
165 289 219 143 140 166 258 281 172 132 256 62 50 33 21 9 357 7 12 3 355 351 350 339 331 328 325 320 312 304 302 300 292 285 295 297 291 282 286 286 283 288 290 287 279 279 279 272 266
87 315 116 116 291 3 150 262 10 302 57 59 40 30 11 2 1 5 5 354 343 342 334 330 328 326 326 322 316 315 305 305 300 294 289 288 285 290 291 289 288 288 285 283 285 280 279 278 275